Date,TemperatureHighF,TemperatureAvgF,TemperatureLowF,DewpointHighF,DewpointAvgF,DewpointLowF,HumidityHigh,HumidityAvg,HumidityLow,PressureMaxIn,PressureMinIn,WindSpeedMaxMPH,WindSpeedAvgMPH,GustSpeedMaxMPH,PrecipitationSumIn
2013-1-1,29.3,14.2,8.1,8.1,1.3,-11.8,74,57,28,30.85,30.25,7,2,10,6.96
2013-1-2,23.4,14.1,6.3,-0.7,-6.1,-13.1,62,40,24,31.06,30.66,9,2,13,0.00
2013-1-3,48.9,17.9,7.9,-1.5,-9.6,-15.7,52,28,20,31.23,30.22,8,2,11,6.96
2013-1-4,42.8,30.2,23.5,7.4,-2.5,-8.7,31,23,20,30.81,30.28,7,2,10,0.00
2013-1-5,42.8,26.3,20.3,11.2,3.3,-6.4,56,38,22,30.92,30.45,11,4,17,0.00
2013-1-6,50.9,34.4,21.0,12.4,0.5,-8.1,54,23,20,30.90,30.20,8,4,12,0.00
2013-1-7,52.3,37.9,27.9,13.0,3.9,-1.4,36,24,20,30.48,30.03,9,3,14,0.00
2013-1-8,52.7,37.9,27.3,13.7,5.8,-10.6,51,27,20,30.85,30.10,9,2,58,6.96
2013-1-9,49.6,33.5,24.6,16.8,11.2,1.7,59,40,23,31.00,30.41,11,4,18,0.00
2013-1-10,48.4,35.2,23.7,14.1,8.9,-0.4,55,35,20,30.63,29.76,8,3,15,0.00
2013-1-11,36.7,23.9,8.2,18.0,0.3,-20.1,67,37,20,30.68,29.72,14,4,24,0.00
2013-1-12,15.3,5.7,-4.0,-3.0,-13.6,-25.1,61,39,21,30.96,30.39,8,2,12,0.00
2013-1-13,17.8,2.3,-6.0,3.9,-8.1,-15.0,68,58,42,31.08,30.46,8,2,11,0.00
2013-1-14,12.4,2.5,-3.5,0.3,-7.0,-12.7,66,61,54,31.16,30.81,7,2,11,0.00
2013-1-15,28.8,14.8,-1.8,13.0,-2.0,-13.2,65,46,22,31.25,30.71,7,2,10,0.00
2013-1-16,50.4,31.1,22.8,19.5,12.3,7.1,63,46,24,31.03,30.47,8,2,10,0.02
2013-1-17,51.3,31.8,24.1,19.5,13.7,7.3,63,48,24,31.13,30.51,11,4,12,0.00
2013-1-18,59.9,38.0,28.2,17.6,3.0,-6.9,33,22,19,30.82,30.13,6,2,9,0.00
2013-1-19,59.0,39.3,29.1,17.7,3.4,-2.2,25,22,19,30.84,30.27,8,2,11,0.00
2013-1-20,43.3,32.8,19.8,10.1,2.7,-7.3,65,29,20,30.90,30.46,11,3,17,0.00
2013-1-21,56.7,34.8,18.0,17.2,4.7,-3.0,75,30,19,30.95,30.18,7,2,11,0.00
2013-1-22,128.7,43.4,33.3,18.1,6.0,-99.9,24,21,18,30.65,30.11,11,3,60,6.98
2013-1-23,70.2,48.6,38.7,19.2,10.2,4.7,24,21,13,30.57,30.06,8,2,61,6.98
2013-1-24,63.7,47.0,35.4,23.8,14.5,0.3,55,29,17,30.55,29.89,11,2,14,6.98
2013-1-25,45.9,37.2,32.0,26.0,21.3,14.4,67,53,39,30.69,30.27,11,4,18,0.00
2013-1-26,56.1,41.0,30.4,30.1,22.9,-23.1,86,52,5,30.51,29.93,9,2,14,6.98
2013-1-27,58.6,41.5,29.8,33.9,23.3,8.4,90,54,21,30.19,29.72,9,2,21,0.00
2013-1-28,56.1,35.9,23.4,27.9,20.1,12.7,88,57,22,30.25,29.52,10,3,21,0.00
2013-1-29,25.7,17.3,11.3,20.3,8.2,-6.7,87,70,29,30.73,30.20,17,4,22,6.98
2013-1-30,32.9,18.2,3.0,17.7,6.3,-3.9,79,60,37,30.80,30.25,7,2,10,0.03
2013-1-31,43.3,28.8,20.8,15.7,8.4,-0.2,64,43,24,30.78,30.29,9,2,14,0.01
2013-2-1,43.5,30.4,22.8,14.2,8.8,6.0,61,42,22,30.86,30.28,14,3,23,0.00
2013-2-2,54.1,32.7,20.3,19.2,10.7,0.6,66,43,20,31.03,30.35,9,3,14,0.00
2013-2-3,54.1,37.4,25.2,14.5,8.6,-1.1,54,32,19,30.86,30.13,8,2,11,0.00
2013-2-4,48.6,34.5,25.2,12.8,2.8,-7.2,41,26,21,30.66,30.13,11,3,16,0.00
2013-2-5,54.9,38.2,29.7,15.1,9.5,3.7,42,31,20,30.62,30.07,14,4,18,0.00
2013-2-6,51.1,38.0,26.2,28.2,18.0,9.4,90,49,24,30.49,29.98,8,3,12,0.00
2013-2-7,44.1,29.5,18.1,28.5,21.4,13.6,89,73,47,30.82,30.26,8,3,15,0.07
2013-2-8,48.9,32.9,21.2,21.6,15.3,9.6,65,49,30,30.69,29.98,11,3,17,0.00
2013-2-9,32.2,25.3,18.3,19.4,15.5,8.0,85,67,53,30.42,29.95,11,4,16,0.00
2013-2-10,26.6,19.2,12.4,16.8,10.5,4.8,84,70,42,30.99,30.00,10,2,14,7.12
2013-2-11,19.6,14.5,10.8,10.8,7.0,4.1,77,72,62,30.81,30.64,14,3,21,0.00
2013-2-12,38.7,20.0,9.9,6.2,-3.5,-13.8,77,39,20,30.93,30.33,7,2,9,0.01
2013-2-13,45.0,28.2,17.2,9.2,3.6,-6.8,47,35,21,30.84,30.30,10,2,13,0.00
2013-2-14,36.7,21.8,12.7,16.5,8.2,-14.0,78,58,10,31.11,30.60,13,4,18,7.13
2013-2-15,33.3,18.5,8.6,13.4,7.5,0.9,76,63,32,31.26,30.73,12,3,25,0.00
2013-2-16,53.6,34.6,15.8,14.0,6.6,-1.4,73,33,20,31.15,30.24,9,2,14,0.00
2013-2-17,57.9,38.7,23.4,18.3,5.5,-2.8,58,26,19,30.50,29.67,15,4,20,0.00
2013-2-18,36.7,23.3,17.2,15.8,4.2,-6.7,78,48,20,30.76,30.14,14,3,25,0.00
2013-2-19,41.2,25.1,14.7,12.9,5.5,-5.5,70,44,24,30.82,30.16,11,4,17,0.00
2013-2-20,34.0,23.4,16.9,21.2,12.6,3.4,82,64,44,30.50,30.07,9,3,13,0.00
2013-2-21,20.1,14.4,10.4,11.1,7.1,4.1,76,72,62,30.71,30.36,11,4,19,7.13
2013-2-22,32.9,18.5,10.6,19.3,10.4,4.0,77,71,51,30.76,30.35,8,4,14,0.06
2013-2-23,46.9,27.3,11.1,16.9,7.6,-3.6,75,45,21,30.69,29.73,9,3,14,0.00
2013-2-24,23.4,19.9,15.4,18.1,14.2,9.0,83,78,73,30.66,30.31,16,6,26,0.00
2013-2-25,35.2,19.4,10.8,19.9,5.6,-7.2,78,58,21,30.79,30.24,14,3,16,0.01
2013-2-26,27.5,21.0,16.0,14.9,8.8,0.4,78,60,41,30.76,30.41,12,4,19,0.00
2013-2-27,32.4,19.0,12.2,15.9,3.7,-6.2,74,54,22,31.04,30.62,12,3,15,0.01
2013-2-28,36.3,24.1,13.1,6.4,-1.4,-10.5,49,33,21,31.13,30.55,11,3,17,0.00
2013-3-1,41.5,28.6,17.8,16.6,9.7,2.9,59,45,30,31.08,30.56,64,2,64,7.21
2013-3-2,56.7,41.2,28.4,21.3,15.1,10.8,55,36,21,30.95,30.29,5,1,8,0.00
2013-3-3,59.5,44.6,33.3,23.8,17.3,8.6,55,35,20,30.52,29.71,8,3,14,0.00
2013-3-4,39.0,25.3,8.1,25.5,16.2,0.6,83,69,47,31.15,30.04,12,4,21,7.21
2013-3-5,41.9,21.8,7.7,22.2,12.5,0.3,80,68,44,31.19,30.49,12,6,17,0.00
2013-3-6,64.0,42.5,19.6,28.3,13.0,-1.3,77,33,17,30.90,29.92,8,2,14,0.00
2013-3-7,62.1,47.4,35.4,20.0,11.8,1.5,49,24,18,30.38,29.91,10,3,14,0.00
2013-3-8,50.2,38.4,29.5,31.7,23.7,14.5,87,57,37,30.42,29.95,5,2,8,0.00
2013-3-9,29.8,25.2,18.3,26.7,20.2,7.7,89,81,61,30.69,30.13,23,7,36,0.00
2013-3-10,34.3,24.3,14.4,12.3,8.4,2.7,74,52,31,30.89,30.46,11,4,61,7.21
2013-3-11,52.7,34.5,24.8,23.2,13.4,4.0,84,46,22,30.64,29.99,8,2,11,0.00
2013-3-12,28.6,24.8,21.7,24.9,20.3,17.7,86,83,80,30.92,30.64,11,4,17,0.00
2013-3-13,67.3,42.3,25.0,25.9,20.2,14.8,87,46,16,30.94,30.12,8,2,11,0.00
2013-3-14,70.9,50.0,37.2,22.5,17.5,10.4,50,30,13,30.73,30.01,9,2,14,0.00
2013-3-15,70.9,53.4,41.0,21.7,16.6,10.0,43,24,13,30.47,29.78,11,2,14,0.00
2013-3-16,49.1,39.9,34.2,31.8,25.6,16.0,88,58,30,30.38,30.00,11,4,18,0.03
2013-3-17,54.9,39.7,27.9,29.5,20.5,1.5,85,51,19,30.32,29.61,10,4,16,0.00
2013-3-18,50.0,30.9,17.4,13.3,6.4,-0.7,65,38,20,30.60,30.06,8,3,14,0.00
2013-3-19,50.9,33.5,22.8,12.4,5.1,-2.1,52,31,21,30.93,30.27,14,3,17,0.00
2013-3-20,49.1,31.5,15.8,20.8,10.5,2.6,64,44,22,31.05,30.13,14,5,19,0.00
2013-3-21,58.8,39.2,25.0,28.9,22.0,14.9,88,53,21,30.37,29.56,12,3,19,0.00
2013-3-22,42.3,28.6,20.1,22.9,19.5,15.5,86,71,37,30.48,29.87,17,5,24,0.00
2013-3-23,20.1,12.8,5.0,16.2,6.3,-2.3,85,75,68,30.90,30.48,17,5,26,0.00
2013-3-24,24.3,11.8,3.0,9.6,1.5,-4.2,74,63,36,31.00,30.50,11,2,13,0.02
2013-3-25,42.4,17.4,2.8,11.7,2.3,-4.5,75,54,25,31.14,30.36,10,2,14,0.00
2013-3-26,55.9,32.1,11.1,22.9,12.1,2.7,75,47,21,31.01,30.03,11,3,16,7.26
2013-3-27,57.6,38.4,23.7,27.3,21.3,14.4,75,52,24,30.60,30.04,9,3,18,0.00
2013-3-28,59.0,44.5,29.8,27.5,23.1,14.5,77,47,21,30.63,30.11,9,3,14,0.00
2013-3-29,60.3,46.6,34.5,32.3,24.6,-7.3,64,45,21,30.55,30.04,12,2,45,7.26
2013-3-30,61.9,45.3,35.1,34.2,24.2,15.8,88,49,18,30.50,29.83,14,3,21,0.01
2013-3-31,72.0,45.2,29.1,33.2,22.9,11.7,92,52,12,30.59,29.75,9,2,11,7.28
2013-4-1,55.9,38.1,28.2,30.6,24.1,18.4,79,58,34,30.57,30.02,10,4,17,0.00
2013-4-2,38.1,30.7,26.8,30.6,26.4,21.8,93,84,69,30.63,30.45,8,3,12,0.00
2013-4-3,54.0,38.4,28.8,40.3,25.6,12.2,97,67,21,30.70,30.18,12,3,20,0.05
2013-4-4,71.6,49.3,33.6,25.5,19.1,13.5,62,34,12,30.60,29.85,8,2,14,0.00
2013-4-5,70.7,53.5,41.2,29.4,19.4,12.2,53,28,13,30.30,29.49,9,3,14,0.00
2013-4-6,61.5,46.9,32.7,30.3,22.7,15.8,65,41,20,30.32,29.81,8,2,12,0.00
2013-4-7,63.3,47.0,35.2,31.1,21.9,14.6,74,41,17,30.19,29.61,12,3,16,0.00
2013-4-8,66.4,45.3,22.5,31.1,22.7,17.2,91,47,15,30.19,29.29,17,5,24,0.00
2013-4-9,22.1,9.7,3.6,18.8,2.9,-3.9,87,73,66,31.02,30.20,15,4,23,0.00
2013-4-10,20.5,10.8,-1.3,11.5,2.1,-9.7,75,67,57,31.14,30.57,11,4,15,0.00
2013-4-11,46.2,32.2,14.7,34.0,20.9,6.0,89,65,39,30.68,30.07,14,3,24,0.02
2013-4-12,57.7,36.5,27.9,34.9,27.3,13.7,89,72,21,30.51,29.96,12,2,17,0.00
2013-4-13,67.3,44.4,27.0,34.6,23.1,14.1,92,54,15,30.50,29.42,13,5,18,0.00
2013-4-14,55.4,39.3,29.3,30.8,20.4,5.1,90,53,21,30.09,29.58,12,3,20,0.12
2013-4-15,45.1,29.0,21.7,20.6,11.9,-32.8,83,54,21,30.52,29.89,14,5,27,7.47
2013-4-16,42.1,27.1,21.0,25.8,19.7,15.7,84,74,50,30.60,30.11,16,5,27,0.03
2013-4-17,27.5,22.2,12.2,22.9,16.9,5.8,85,80,72,30.92,30.41,4,0,6,0.00
2013-4-18,32.9,17.6,8.2,14.8,7.5,0.5,76,65,43,31.01,30.51,9,1,13,0.05
2013-4-19,47.7,33.8,16.2,21.4,10.2,2.1,56,39,21,30.85,30.18,8,2,11,0.02
2013-4-20,52.5,39.4,28.2,28.7,20.8,12.0,81,49,27,30.51,29.96,11,2,14,0.00
2013-4-21,63.0,43.8,32.0,27.3,22.8,13.5,82,50,20,30.55,29.99,11,3,18,0.00
2013-4-22,56.7,31.8,16.2,32.0,20.9,10.0,85,67,24,30.85,29.95,18,5,27,0.00
2013-4-23,30.7,19.8,12.6,19.7,11.1,6.5,77,69,54,30.97,30.53,7,2,9,0.05
2013-4-24,50.0,32.7,15.8,18.1,10.9,0.9,76,45,21,30.98,30.39,8,2,14,0.02
2013-4-25,63.7,44.9,28.2,29.3,19.0,9.6,55,37,19,30.75,29.98,10,2,14,0.00
2013-4-26,62.8,47.9,39.7,23.6,16.8,9.6,49,30,17,30.54,30.09,14,4,18,0.00
2013-4-27,70.5,51.8,36.7,25.9,19.0,11.0,59,31,13,30.63,29.88,11,3,20,0.00
2013-4-28,81.9,57.7,42.4,31.5,17.3,9.9,45,22,11,30.33,29.57,9,2,13,0.00
2013-4-29,81.5,59.4,39.9,32.6,24.8,15.1,66,32,11,30.14,29.30,11,3,16,0.00
2013-4-30,68.5,51.5,33.1,39.8,28.8,14.2,88,47,20,30.30,29.54,11,4,17,0.00
2013-5-1,33.1,26.6,18.0,30.4,23.5,13.4,95,88,79,31.08,30.30,11,2,16,0.00
2013-5-2,41.9,26.3,14.5,19.9,13.5,2.8,86,62,24,31.32,30.69,9,2,15,0.11
2013-5-3,56.3,39.7,25.5,22.8,15.1,7.6,68,40,20,30.96,30.20,11,3,20,0.00
2013-5-4,60.1,42.3,28.4,28.5,22.6,16.2,67,47,24,30.64,30.09,10,3,15,0.00
2013-5-5,55.4,41.3,30.9,20.1,15.7,10.8,53,37,21,30.67,30.18,13,4,18,0.00
2013-5-6,62.8,47.2,35.4,37.1,27.3,15.7,78,47,28,30.56,30.03,11,3,15,0.00
2013-5-7,70.9,50.6,39.9,41.5,31.9,-99.9,85,53,19,30.31,29.73,9,2,13,7.77
2013-5-8,57.0,40.9,36.3,42.7,36.5,32.8,96,85,49,30.46,30.09,13,2,17,0.39
2013-5-9,50.5,38.9,32.7,41.5,36.3,30.9,98,90,66,30.67,30.36,11,2,15,0.50
2013-5-10,57.0,45.1,33.4,39.1,33.5,6.5,92,67,30,30.70,30.25,30,3,30,8.68
2013-5-11,64.8,49.2,38.1,41.4,34.9,31.1,84,60,32,30.72,30.16,11,3,17,0.00
2013-5-12,73.9,57.2,42.8,34.6,29.8,23.2,66,39,16,30.42,29.83,16,3,19,0.00
2013-5-13,80.1,64.1,49.8,39.8,31.3,22.2,48,31,14,30.24,29.72,11,3,13,0.00
2013-5-14,81.9,61.6,54.0,44.9,36.0,24.9,66,41,14,30.03,29.56,16,3,24,0.02
2013-5-15,75.4,58.0,46.9,48.5,40.7,30.0,92,57,21,30.08,29.62,9,2,12,0.09
2013-5-16,82.2,60.6,43.2,43.2,34.1,20.5,86,44,12,30.09,29.38,11,2,15,0.00
2013-5-17,88.7,65.6,48.4,44.3,28.3,16.4,84,33,11,30.39,29.28,10,4,16,8.79
2013-5-18,76.3,60.2,45.9,38.0,22.2,13.7,68,25,12,29.92,29.46,8,2,12,0.00
2013-5-19,61.7,49.2,38.7,36.3,30.5,20.6,83,52,22,30.40,29.71,10,2,17,8.79
2013-5-20,64.4,45.2,36.7,47.5,35.6,23.8,95,72,22,30.35,29.77,10,2,16,0.22
2013-5-21,65.7,48.8,34.2,39.8,31.5,21.8,98,59,19,30.46,29.76,11,2,15,0.01
2013-5-22,77.0,55.7,38.7,42.4,34.5,23.6,83,51,16,30.27,29.56,14,3,21,0.02
2013-5-23,58.5,48.3,43.7,45.3,42.4,39.7,93,80,59,30.36,30.02,14,4,27,0.00
2013-5-24,88.0,63.3,47.5,53.1,37.9,16.9,99,53,11,30.25,29.44,13,4,24,0.00
2013-5-25,88.2,67.6,48.7,46.7,29.9,17.0,82,32,11,30.11,29.35,9,3,15,0.00
2013-5-26,89.1,67.9,57.0,43.2,26.1,16.3,54,23,11,29.95,29.36,10,3,15,0.00
2013-5-27,84.2,63.4,47.8,44.1,23.8,14.3,64,26,11,30.06,29.40,8,2,11,9.04
2013-5-28,79.0,61.4,47.3,49.2,34.1,19.9,75,39,15,30.09,29.29,14,3,20,0.00
2013-5-29,67.1,51.7,43.0,46.6,40.0,20.2,91,67,25,29.95,29.51,12,4,16,9.04
2013-5-30,68.2,53.7,41.9,32.1,23.7,17.0,66,35,14,30.11,29.62,13,4,21,0.00
2013-5-31,67.3,54.5,39.4,29.8,18.7,12.7,66,26,15,30.20,29.85,14,4,20,0.00
2013-6-1,65.5,50.5,38.1,35.9,30.1,9.6,75,47,23,30.52,30.08,17,4,23,0.00
2013-6-2,83.8,60.0,39.9,38.0,30.6,18.3,77,40,12,30.50,29.56,12,4,21,0.00
2013-6-3,91.8,71.3,53.1,37.5,25.6,18.3,35,20,11,29.96,29.19,12,3,19,0.00
2013-6-4,79.2,59.7,45.7,52.7,37.0,15.5,97,49,15,30.29,29.62,12,4,18,0.04
2013-6-5,55.9,46.1,40.3,52.3,43.4,40.0,99,91,67,30.48,30.17,11,3,16,0.02
2013-6-6,76.3,58.7,42.1,44.5,37.3,23.2,99,53,16,30.39,29.76,14,4,17,0.01
2013-6-7,79.3,61.6,46.0,44.3,38.6,32.0,75,46,20,30.26,29.54,10,2,18,0.00
2013-6-8,70.5,60.9,50.5,47.1,39.0,-99.9,60,46,26,30.16,29.72,16,5,22,9.11
2013-6-9,92.8,67.3,47.5,41.0,32.1,19.2,67,34,11,30.40,29.50,10,3,15,0.00
2013-6-10,97.0,75.1,57.0,38.5,29.0,21.9,35,20,11,30.07,29.27,10,2,14,0.00
2013-6-11,97.0,79.0,63.9,38.5,27.4,17.0,25,15,11,29.86,29.11,17,4,24,0.00
2013-6-12,88.5,72.5,55.4,34.7,24.8,18.5,29,18,11,30.18,29.47,17,3,29,0.00
2013-6-13,90.5,71.0,51.8,49.5,41.0,30.5,84,38,17,30.22,29.38,14,4,24,0.00
2013-6-14,86.4,68.9,57.7,50.3,37.4,24.4,64,34,12,29.92,29.51,13,3,20,0.00
2013-6-15,80.6,62.7,50.5,47.7,43.8,39.7,79,52,26,30.10,29.62,12,3,17,0.00
2013-6-16,81.3,61.8,51.1,48.4,41.2,28.2,79,50,15,30.17,29.69,11,3,22,0.01
2013-6-17,77.9,61.2,50.9,47.6,39.7,33.4,70,47,23,30.26,29.81,11,3,18,0.02
2013-6-18,81.9,60.6,48.0,56.5,46.6,42.2,91,63,27,30.37,29.58,13,4,20,0.27
2013-6-19,88.2,66.9,49.8,52.6,40.4,-99.9,96,51,1,30.36,29.30,15,5,19,9.41
2013-6-20,92.3,70.7,55.8,45.2,26.6,16.4,53,20,11,29.98,29.22,13,4,22,0.00
2013-6-21,96.4,74.5,55.6,42.2,29.3,16.6,59,22,11,29.96,29.15,10,2,16,0.00
2013-6-22,86.2,67.1,51.6,48.9,38.9,21.2,75,42,11,30.10,29.35,14,2,20,0.00
2013-6-23,85.5,66.5,50.4,46.6,40.3,31.7,80,44,17,30.15,29.40,14,3,23,0.00
2013-6-24,87.1,66.8,52.2,49.1,35.0,17.0,74,40,11,30.10,29.28,11,3,21,0.00
2013-6-25,91.8,73.5,61.0,37.5,24.9,17.0,33,17,11,29.89,29.33,11,3,18,0.00
2013-6-26,95.5,76.2,59.7,48.0,34.4,26.9,44,24,11,30.12,29.39,12,3,16,0.00
2013-6-27,95.9,77.5,64.6,44.7,36.6,26.9,47,25,11,30.04,29.48,11,3,15,0.00
2013-6-28,93.0,74.4,57.6,53.5,47.3,35.1,80,43,14,30.30,29.49,14,4,24,0.07
2013-6-29,80.6,66.6,54.3,55.0,48.5,37.9,89,55,26,30.38,29.81,12,3,17,0.02
2013-6-30,76.6,62.5,53.6,54.8,50.7,43.1,90,67,45,30.44,29.90,10,3,13,0.06
2013-7-1,81.0,59.9,51.3,56.4,51.2,34.8,95,75,43,30.59,29.43,10,3,14,9.59
2013-7-2,76.3,62.0,49.6,53.5,45.6,30.4,98,61,21,30.58,29.95,14,3,21,0.01
2013-7-3,89.1,66.2,52.3,47.4,39.0,25.2,72,43,13,30.34,29.58,12,3,19,9.60
2013-7-4,86.0,69.3,56.5,44.4,39.5,31.5,62,37,16,30.16,29.49,13,3,18,9.60
2013-7-5,88.3,68.2,57.6,56.5,47.0,39.2,88,51,22,29.99,29.38,10,2,15,0.16
2013-7-6,87.4,67.5,57.9,55.1,48.1,38.5,86,54,22,30.02,29.48,10,2,16,0.09
2013-7-7,87.3,66.9,55.2,58.4,49.9,42.9,84,57,24,30.10,29.58,10,2,13,0.08
2013-7-8,94.1,73.9,59.7,51.0,44.7,33.1,71,39,14,30.17,29.44,9,3,14,0.00
2013-7-9,93.4,74.8,62.8,45.6,39.8,29.7,45,31,12,30.13,29.53,9,2,13,0.00
2013-7-10,86.5,69.8,57.0,64.9,48.8,39.3,87,49,26,30.23,29.66,11,3,17,0.08
2013-7-11,91.6,71.5,53.1,57.2,53.0,47.5,97,58,23,30.42,29.49,13,4,21,0.00
2013-7-12,90.5,70.9,61.7,64.2,50.3,42.9,86,51,22,29.95,29.51,13,2,18,0.20
2013-7-13,86.2,66.1,55.8,62.6,54.1,47.1,90,69,28,30.20,29.65,10,2,25,0.27
2013-7-14,73.8,63.7,54.3,57.2,53.9,49.3,97,72,52,30.27,29.92,12,4,16,0.12
2013-7-15,83.3,61.3,53.2,58.4,40.6,-99.9,98,74,1,30.32,29.79,76,8,76,10.70
2013-7-16,77.7,61.0,48.2,53.5,48.0,43.6,93,66,35,30.52,29.96,14,4,22,0.00
2013-7-17,81.5,65.1,52.7,54.3,50.1,41.1,95,63,26,30.46,29.83,17,5,26,0.00
2013-7-18,88.2,69.6,54.5,51.2,48.5,44.3,84,50,26,30.33,29.66,12,4,19,0.00
2013-7-19,79.2,66.1,57.4,55.6,51.5,48.5,86,61,38,30.31,29.81,11,3,17,0.00
2013-7-20,89.8,68.5,54.5,57.3,50.7,36.9,97,60,19,30.16,29.47,16,4,24,0.00
2013-7-21,89.8,72.1,54.5,52.5,41.9,26.3,80,41,11,30.13,29.44,13,3,21,10.70
2013-7-22,99.3,75.5,60.6,40.8,35.7,24.0,47,26,11,29.96,29.34,11,3,16,0.00
2013-7-23,90.9,75.4,61.9,51.9,35.5,21.4,57,27,11,30.03,29.49,11,3,18,0.00
2013-7-24,75.4,61.9,52.3,60.0,54.9,37.1,93,78,57,30.35,29.68,16,3,29,0.39
2013-7-25,73.2,60.3,49.6,55.9,49.9,45.5,98,71,39,30.37,29.97,17,3,26,0.03
2013-7-26,89.1,66.5,52.0,53.7,47.0,-99.9,78,54,23,30.50,29.81,8,2,61,11.12
2013-7-27,85.3,64.6,52.2,56.9,48.5,33.5,93,61,17,30.26,29.67,10,3,17,0.08
2013-7-28,73.6,58.2,53.8,60.5,55.2,52.5,98,90,54,30.18,29.82,8,2,11,0.77
2013-7-29,72.3,60.6,54.7,56.1,52.4,47.3,99,76,45,30.36,29.90,11,3,13,0.07
2013-7-30,86.9,65.3,51.1,53.5,47.1,40.5,87,57,24,30.48,29.79,10,2,16,0.06
2013-7-31,90.1,68.8,53.8,58.9,49.5,43.4,78,53,22,30.46,29.75,7,2,13,0.10
2013-8-1,87.8,68.4,55.2,56.7,50.4,39.6,96,59,19,30.34,29.66,9,3,14,0.00
2013-8-2,89.8,70.3,58.3,52.0,45.0,34.0,65,43,18,30.13,29.44,11,3,16,12.20
2013-8-3,81.5,65.7,53.8,56.7,52.2,47.1,97,64,39,30.29,29.72,10,3,15,0.44
2013-8-4,88.0,64.7,53.1,58.2,49.9,34.3,98,66,18,30.31,29.62,8,3,14,0.34
2013-8-5,86.4,66.9,53.4,51.6,46.4,31.9,87,53,17,30.24,29.54,11,3,16,0.01
2013-8-6,89.4,67.9,58.5,49.9,44.2,31.0,66,46,15,30.07,29.49,11,2,16,0.00
2013-8-7,73.9,60.0,53.8,58.8,50.1,44.2,94,71,46,30.22,29.83,8,2,11,0.09
2013-8-8,74.3,57.9,50.0,55.2,50.6,44.9,99,79,45,30.37,29.89,8,3,14,0.25
2013-8-9,75.9,57.7,48.7,52.3,47.6,43.3,92,72,37,30.47,29.99,13,3,21,0.08
2013-8-10,88.3,62.8,47.1,55.9,48.1,37.3,98,64,23,30.54,29.74,13,4,22,0.01
2013-8-11,78.1,62.4,52.2,51.7,45.8,41.3,78,56,29,30.31,29.89,8,2,13,0.02
2013-8-12,81.3,63.0,52.7,51.7,46.4,41.5,93,57,28,30.37,29.85,8,2,11,0.00
2013-8-13,77.0,60.9,50.0,54.3,47.6,43.4,93,64,35,30.36,29.91,8,3,13,0.01
2013-8-14,83.3,62.2,47.1,51.6,44.6,33.0,83,57,22,30.47,29.78,9,2,17,0.00
2013-8-15,84.2,66.7,52.5,47.4,39.2,25.4,72,41,17,30.41,29.70,11,3,14,0.00
2013-8-16,93.9,70.7,54.5,47.4,39.2,28.1,65,37,11,30.31,29.57,8,2,11,13.45
2013-8-17,92.1,72.8,56.1,53.7,39.6,21.9,67,35,11,30.26,29.49,9,3,14,0.00
2013-8-18,93.0,71.1,59.5,54.8,44.0,25.9,81,44,12,30.14,29.50,13,2,22,0.02
2013-8-19,89.1,71.4,56.8,51.5,43.6,31.4,69,40,16,30.18,29.59,11,3,19,0.00
2013-8-20,95.4,74.8,58.3,45.2,39.4,29.0,57,32,12,30.07,29.36,11,3,18,0.00
2013-8-21,90.7,68.9,58.6,55.8,43.7,34.0,85,44,17,30.11,29.53,8,2,12,0.23
2013-8-22,90.0,64.7,52.7,59.6,53.1,47.0,97,70,29,30.42,29.64,7,2,13,1.19
2013-8-23,87.4,66.9,51.3,60.7,51.2,42.7,98,62,32,30.42,29.57,10,2,15,0.16
2013-8-24,87.6,68.4,55.8,53.6,47.3,40.3,69,50,23,30.09,29.53,8,2,15,0.00
2013-8-25,87.6,69.6,58.3,53.9,49.4,46.0,71,51,27,30.21,29.65,8,2,11,0.00
2013-8-26,94.8,74.0,61.7,55.2,50.2,46.5,64,46,24,30.14,29.49,11,3,15,0.00
2013-8-27,86.5,70.8,59.0,55.8,51.8,47.2,72,53,33,30.13,29.59,7,2,9,0.00
2013-8-28,96.1,72.6,59.7,53.9,45.4,36.4,65,42,13,30.12,29.44,6,2,10,0.00
2013-8-29,98.1,73.9,59.4,52.6,44.6,34.1,60,39,12,30.17,29.46,7,2,10,15.05
2013-8-30,90.0,71.0,61.5,55.5,48.9,43.9,78,48,22,30.09,29.61,8,1,11,0.04
2013-8-31,87.8,70.2,62.6,53.9,47.7,41.6,71,47,24,30.12,29.52,12,3,15,0.01
2013-9-1,75.2,62.1,56.8,58.7,52.8,46.5,88,72,49,30.33,29.94,9,4,14,0.06
2013-9-2,94.3,67.1,52.3,64.6,54.4,47.2,95,68,30,30.24,29.51,11,3,14,0.05
2013-9-3,95.4,72.0,60.6,52.1,49.0,43.4,71,47,18,30.16,29.51,11,2,14,0.00
2013-9-4,90.0,72.0,62.2,55.2,49.7,46.2,62,47,25,30.13,29.61,8,2,14,0.00
2013-9-5,94.3,74.1,59.2,53.3,44.6,37.0,63,38,17,30.22,29.50,12,2,15,0.00
2013-9-6,95.4,74.4,61.3,48.4,39.1,30.0,54,31,12,30.17,29.45,9,2,12,0.00
2013-9-7,93.2,73.1,58.1,48.9,41.1,28.4,60,36,11,30.19,29.47,9,2,17,0.00
2013-9-8,93.2,71.6,58.5,45.8,41.0,34.4,54,36,14,30.12,29.33,8,2,14,0.00
2013-9-9,88.3,65.0,54.0,53.8,48.9,40.6,93,60,22,30.11,29.39,11,3,16,0.00
2013-9-10,77.2,59.4,53.8,55.3,53.0,49.8,97,82,44,30.22,29.82,8,2,11,0.16
2013-9-11,72.0,59.0,54.3,58.6,54.7,53.3,99,87,54,30.25,29.93,11,2,14,0.11
2013-9-12,62.4,55.8,52.9,58.5,54.7,52.3,99,96,83,30.35,30.18,8,2,11,17.22
2013-9-13,64.9,57.5,53.8,58.6,54.3,51.3,99,90,71,30.23,29.90,11,3,22,0.68
2013-9-14,81.5,58.9,48.2,56.0,49.8,46.1,99,76,35,30.21,29.60,8,2,14,18.41
2013-9-15,56.3,52.0,48.9,53.1,51.1,48.7,99,97,86,30.51,30.20,8,3,16,0.18
2013-9-16,64.6,53.3,49.1,58.6,51.1,-13.4,99,93,70,30.51,30.12,12,5,20,18.68
2013-9-17,86.4,64.3,50.0,52.7,45.0,30.5,99,56,16,30.34,29.55,10,2,14,0.00
2013-9-18,84.2,65.2,54.0,48.5,43.7,37.7,69,48,23,30.05,29.42,8,3,14,18.68
2013-9-19,59.5,53.3,47.5,45.7,41.8,30.8,80,66,47,30.43,29.91,9,3,16,0.00
2013-9-20,71.8,55.2,46.0,50.2,46.7,42.2,99,75,44,30.50,29.94,11,3,15,0.00
2013-9-21,86.0,63.0,46.2,47.6,40.0,28.0,92,50,14,30.33,29.54,11,3,15,0.00
2013-9-22,78.4,63.6,47.3,46.6,42.9,34.5,92,51,23,29.99,29.39,8,3,14,0.06
2013-9-23,63.0,49.5,40.3,46.4,35.6,24.2,99,65,24,30.43,29.72,12,3,21,19.07
2013-9-24,73.2,55.0,41.9,35.2,26.6,17.9,53,36,16,30.52,29.89,11,3,21,0.00
2013-9-25,80.1,64.3,45.9,35.5,23.8,-99.9,57,24,12,30.33,29.29,14,4,21,19.07
2013-9-26,78.1,57.7,41.2,46.4,34.6,19.0,87,49,15,30.04,29.40,11,2,17,0.00
2013-9-27,55.2,45.8,32.9,46.2,37.8,27.8,99,78,35,30.47,29.79,59,3,59,19.08
2013-9-28,69.6,45.0,27.7,32.5,23.4,17.8,99,50,16,30.76,30.04,10,2,15,0.00
2013-9-29,79.3,57.5,39.0,29.7,20.8,14.1,50,26,12,30.56,29.65,9,3,14,0.00
2013-9-30,84.2,62.5,50.7,42.1,28.7,14.9,46,29,16,30.13,29.43,13,3,20,0.00
2013-10-1,74.5,59.1,46.9,38.1,30.7,21.5,66,35,20,30.22,29.70,11,3,17,0.00
2013-10-2,74.7,57.9,46.9,41.7,33.9,23.5,79,44,19,30.13,29.61,8,2,12,0.00
2013-10-3,75.0,54.9,38.8,44.9,33.3,18.3,97,54,13,30.10,29.37,18,3,18,19.08
2013-10-4,44.8,32.0,21.0,44.0,30.6,17.4,99,94,83,30.86,29.81,12,3,19,0.11
2013-10-5,53.2,35.2,21.2,25.6,14.8,0.8,89,50,20,30.96,30.37,12,3,19,0.02
2013-10-6,65.3,47.9,36.0,31.8,17.2,-0.8,61,31,20,30.84,30.25,8,2,14,0.00
2013-10-7,81.3,56.6,41.0,28.1,21.2,16.3,51,28,11,30.65,29.80,11,3,14,0.00
2013-10-8,74.8,60.8,46.9,31.9,20.8,15.7,51,23,12,30.12,29.56,7,2,11,0.00
2013-10-9,65.1,52.4,42.1,40.3,32.5,24.3,87,49,28,30.17,29.76,9,3,11,0.00
2013-10-10,61.9,46.6,37.8,41.4,35.8,22.5,99,69,36,30.23,29.58,12,3,21,0.00
2013-10-11,60.3,44.6,37.9,38.6,28.2,21.4,96,57,23,30.42,29.83,10,3,20,0.01
2013-10-12,54.1,41.9,36.9,38.2,35.4,29.4,97,79,51,30.64,30.25,14,4,17,0.00
2013-10-13,58.5,44.4,31.8,46.9,36.3,29.3,94,75,45,30.74,30.09,11,4,19,0.00
2013-10-14,53.6,42.3,31.5,42.2,33.9,16.0,98,76,24,30.62,29.98,13,4,18,19.22
2013-10-15,34.0,29.8,26.1,27.2,21.7,16.8,84,72,63,30.92,30.61,9,4,16,0.00
2013-10-16,50.7,34.4,26.4,31.5,21.1,10.1,95,63,24,30.81,30.23,11,3,15,0.00
2013-10-17,53.8,38.0,30.9,29.6,21.2,6.4,79,52,30,30.69,30.15,8,2,11,0.00
2013-10-18,41.5,30.2,24.8,29.9,24.0,7.6,92,78,57,30.78,30.41,8,2,14,0.10
2013-10-19,63.3,40.9,24.8,24.7,18.4,12.9,85,43,18,30.75,29.98,7,2,12,0.00
2013-10-20,44.6,37.4,28.8,32.3,24.4,11.2,97,64,28,30.63,30.26,10,3,16,0.00
2013-10-21,50.7,36.1,26.1,29.6,22.7,13.1,92,63,25,30.79,30.26,8,2,12,0.03
2013-10-22,68.9,46.6,37.2,29.4,23.3,18.5,56,42,16,30.68,30.09,8,2,11,0.00
2013-10-23,71.4,49.0,38.8,31.1,24.9,19.1,63,41,15,30.58,29.97,8,2,11,0.00
2013-10-24,66.2,43.9,34.3,34.4,30.3,25.2,83,61,27,30.76,30.08,11,3,16,0.00
2013-10-25,64.6,47.6,32.4,31.8,26.6,18.7,90,49,17,30.76,30.08,9,2,13,0.00
2013-10-26,66.0,45.2,35.2,33.5,29.4,21.7,80,57,19,30.81,30.17,10,3,15,0.00
2013-10-27,71.4,49.5,37.8,30.6,19.2,12.8,73,33,13,30.54,29.70,6,2,11,0.00
2013-10-28,44.1,35.5,29.1,31.0,26.3,13.6,94,73,29,30.56,30.09,8,3,14,0.00
2013-10-29,63.1,35.1,23.4,38.2,27.4,20.2,99,79,20,30.64,29.86,11,3,15,0.00
2013-10-30,54.5,37.4,27.5,32.6,23.9,13.1,96,66,21,30.42,29.87,10,3,15,0.00
2013-10-31,55.4,36.3,24.4,24.6,13.5,8.3,88,42,19,30.51,29.91,12,2,20,0.00
2013-11-1,42.6,35.9,29.8,28.6,21.5,12.8,76,56,36,30.79,30.36,9,3,14,0.00
2013-11-2,61.9,43.6,28.6,23.4,16.6,3.0,76,38,19,30.84,30.02,10,4,15,0.00
2013-11-3,66.7,49.4,30.6,25.0,14.6,7.1,75,27,15,30.21,29.49,11,3,19,0.00
2013-11-4,35.8,29.2,23.4,29.3,20.8,14.4,91,72,52,30.59,30.21,14,4,21,0.00
2013-11-5,35.2,24.8,16.3,21.7,11.1,-1.5,86,58,31,31.04,30.45,12,4,17,0.00
2013-11-6,47.5,32.4,16.3,12.5,4.2,-7.7,56,31,21,31.05,30.55,12,3,15,0.00
2013-11-7,60.6,39.8,27.3,18.9,13.4,8.6,49,35,19,31.07,30.30,10,4,14,0.00
2013-11-8,64.4,49.4,37.2,63.0,12.4,5.6,97,23,16,30.45,29.85,8,2,13,0.00
2013-11-9,61.7,44.8,36.7,25.1,21.4,14.1,59,41,21,30.66,30.13,9,3,14,0.00
2013-11-10,64.6,46.2,33.1,27.3,20.1,11.4,74,39,16,30.73,30.10,8,2,11,0.00
2013-11-11,68.9,41.3,26.4,30.1,18.5,8.8,91,47,14,31.15,30.13,11,2,16,0.00
2013-11-12,59.0,37.3,25.5,28.9,24.9,20.3,93,65,24,31.24,30.51,10,4,15,0.00
2013-11-13,65.1,47.6,37.2,19.7,10.5,4.6,48,22,16,30.82,30.02,8,2,10,0.00
2013-11-14,63.0,41.8,33.4,30.6,22.7,5.6,77,51,18,30.51,29.87,12,3,18,0.00
2013-11-15,62.1,42.5,29.7,27.2,17.3,8.7,77,40,18,30.29,29.55,11,4,21,0.00
2013-11-16,55.6,40.3,26.8,28.4,17.3,8.9,86,43,19,30.07,29.44,16,5,32,0.00
2013-11-17,57.6,34.4,24.3,22.5,16.1,10.4,81,50,20,30.60,29.89,10,2,18,0.00
2013-11-18,60.8,40.9,25.0,17.7,8.2,-0.3,55,27,18,30.76,30.11,10,3,14,0.00
2013-11-19,56.8,44.5,34.5,21.2,11.9,3.4,45,27,20,30.46,29.86,8,2,12,0.00
2013-11-20,61.0,42.3,32.7,28.3,20.4,15.5,68,43,19,30.34,29.77,8,2,13,0.00
2013-11-21,37.4,12.3,5.5,28.5,6.4,-1.1,88,77,67,31.40,30.32,10,5,16,0.00
2013-11-22,32.0,21.8,9.3,25.4,14.8,2.4,82,74,63,31.29,31.05,8,2,10,0.02
2013-11-23,31.6,21.8,16.7,17.4,8.1,-4.6,81,58,23,31.41,30.90,12,4,19,0.00
2013-11-24,36.5,24.5,16.5,28.7,17.2,-99.9,91,75,44,30.98,30.26,14,5,61,19.37
2013-11-25,32.9,28.1,23.7,25.0,15.7,10.3,86,60,45,30.90,30.30,17,4,27,0.01
2013-11-26,40.8,30.4,23.9,18.8,14.1,9.2,65,52,29,31.01,30.70,14,3,17,0.00
2013-11-27,60.1,40.8,26.6,18.9,11.8,0.9,54,31,19,30.94,30.16,8,2,11,0.00
2013-11-28,46.2,33.6,23.5,24.6,19.6,-25.7,86,58,33,30.77,30.29,63,4,63,19.38
2013-11-29,61.9,40.9,23.5,22.2,11.4,4.6,86,31,18,30.77,30.09,8,2,12,0.00
2013-11-30,60.8,39.1,31.1,17.7,5.9,-1.1,36,25,18,30.76,30.14,8,2,9,0.00
2013-12-1,56.7,40.9,29.5,21.8,8.7,-99.9,47,27,19,30.74,30.11,10,3,18,19.38
2013-12-2,54.0,42.9,35.2,22.7,16.8,10.1,51,36,21,30.33,29.85,7,2,12,0.00
2013-12-3,53.4,36.1,7.7,23.6,13.4,0.6,82,43,24,30.51,29.56,11,4,17,0.00
2013-12-4,7.7,-0.0,-8.1,0.6,-8.2,-17.3,73,65,57,31.15,30.51,9,4,13,0.00
2013-12-5,4.8,-3.8,-10.7,-4.2,-12.4,-20.1,67,61,55,31.29,31.01,12,4,17,0.00
2013-12-6,7.9,-4.4,-12.3,-5.4,-14.1,-21.4,62,57,46,31.42,31.04,12,4,17,0.00
2013-12-7,9.0,-0.7,-6.9,-1.3,-9.5,-15.4,68,62,53,31.42,30.70,13,6,18,0.00
2013-12-8,21.4,9.3,-1.1,11.8,1.1,-9.6,76,68,59,31.02,30.39,8,2,13,0.00
2013-12-9,27.3,8.3,-3.8,4.9,-9.3,-16.3,73,45,21,31.19,30.61,9,3,13,0.00
2013-12-10,46.8,25.8,9.7,11.9,1.3,-11.2,55,35,21,31.06,30.22,9,2,15,0.02
2013-12-11,34.2,22.4,10.4,14.2,5.3,-2.5,75,51,22,31.22,30.77,14,6,20,0.00
2013-12-12,65.5,40.5,29.3,18.2,4.2,-1.9,26,22,16,30.90,30.12,7,2,12,0.00
2013-12-13,52.2,33.0,23.9,13.9,5.5,-2.8,55,33,20,30.82,29.98,11,3,16,0.00
2013-12-14,37.4,25.4,15.6,11.8,7.9,1.8,75,49,24,31.11,30.55,6,2,8,0.00
2013-12-15,56.8,39.2,27.9,18.4,10.3,0.6,52,32,20,30.85,30.03,8,2,13,19.40
2013-12-16,60.3,41.6,30.9,17.9,8.2,-0.4,36,25,19,30.78,30.13,7,2,11,0.00
2013-12-17,65.5,43.2,32.2,18.4,8.7,-0.3,41,24,16,30.82,30.18,8,3,11,0.00
2013-12-18,62.6,47.9,40.1,18.4,9.8,5.4,24,21,16,30.40,29.85,8,2,13,0.00
2013-12-19,59.7,39.3,18.3,21.1,16.0,6.6,87,44,19,30.40,29.58,11,4,15,0.00
2013-12-20,32.0,21.9,16.9,27.9,17.1,12.1,90,82,70,30.48,30.05,8,2,13,0.00
2013-12-21,30.0,21.3,15.6,17.2,12.2,6.4,85,68,43,30.61,30.00,9,3,14,0.00
2013-12-22,36.0,19.9,11.3,17.9,8.3,-0.8,81,62,35,30.99,30.33,9,2,12,0.01
2013-12-23,35.8,23.8,10.8,17.3,11.9,4.7,78,62,43,31.18,30.41,11,4,15,0.00
2013-12-24,53.1,32.8,16.7,21.3,15.2,-1.2,79,51,21,30.75,30.03,15,4,24,0.00
2013-12-25,43.2,26.6,16.9,6.5,-2.3,-13.1,43,28,20,31.05,30.25,10,3,14,0.00
2013-12-26,56.8,35.7,28.2,17.3,3.2,-2.0,36,25,19,30.78,30.18,8,2,11,0.00
2013-12-27,57.9,39.4,27.9,18.6,8.8,3.6,43,28,20,30.85,30.16,5,2,8,19.41
2013-12-28,53.1,36.3,16.5,20.2,13.9,5.1,85,44,21,30.93,30.00,16,5,28,0.00
2013-12-29,33.3,18.6,11.3,22.8,11.7,5.5,81,74,59,31.10,30.41,13,4,17,0.03
2013-12-30,43.7,28.8,20.5,12.9,9.0,4.8,64,44,23,30.93,30.54,8,2,11,0.00
2013-12-31,54.3,36.5,23.5,17.0,11.6,-16.1,54,37,21,30.86,29.95,74,2,74,19.44
2014-1-1,33.8,26.3,15.1,23.0,16.8,9.2,83,68,49,30.83,30.17,11,3,18,0.00
2014-1-2,49.3,30.0,15.3,15.3,8.7,-4.8,77,45,20,30.96,30.21,11,4,17,0.00